User: anonymous   Login
Location: Unspecified
(0.0000°N, 0.0000°E)
Time: 14:43:45
(UTC+00:00)
Language:

Kosmos-1506 - Orbit

View from above orbital plane
View from above orbital plane
View from above satellite
View from above satellite

Ground track
Ground track

The orbit data is extracted from the following two-line orbital elements,

1 14450U 83108A   17206.28990213 +.00000038 +00000-0 +22789-4 0  9997
2 14450 082.9311 167.9162 0044428 082.7278 026.5763 13.76220036510755
Epoch (UTC): 25 July 2017 06:57:27
Eccentricity: 0.0044428
inclination: 82.9311°
perigee height: 944 km
apogee height: 1010 km
right ascension of ascending node: 167.9162°
argument of perigee: 82.7278°
revolutions per day: 13.76220036
mean anomaly at epoch: 26.5763°
orbit number at epoch: 51075

The dashed part of the orbit path shows where the satellite is in the earth's shadow,  

DLR